THOR ABLESTAR DEB, 320

Orbit data source: Space-Track

THOR ABLESTAR DEB, 320 is space debris in LEO originally from a launch on Thu, 29 Jun 1961 UTC launched from the Air Force Eastern Test Range (AFETR). Debris objects in space refer to the collection of defunct objects orbiting the Earth. Examples of debris include non-operational satellites, rocket bodies, and fragments generated from explosions, collisions, or faulty payload assembly.

Loading next visibility...
Identifier
320, 1961-015CW
Orbit
LEO
Country
Flag of USUS
Related business
Manufacturer
Unknown
Mission
Spacecraft
Bus & Motor
Unknown
Mass
Unknown
Launch date (UTC)
1961-06-29 (65 years ago)
Launch vehicle
Unknown
Launch site
Air Force Eastern Test Range (AFETR)
Object type
Payload
Rocket body
Debris
Shape & HBR
Unknown shape, 0.2 m
Radar Cross Section
Medium (>0.1 m² and <1 m²)

Expand to show TLE details & history
Last TLE update: 9 hours ago

TLE from 9 hours ago
0 THOR ABLESTAR DEB
1 00320U 61015CW  26104.29268686  .00000144  00000-0  82225-4 0  9990
2 00320  66.9055 211.4391 0126746  72.6848 288.8071 14.29542387359220
Epoch: 2026-04-14T07:01Z
TLE epoch observation values (Epoch: 2026-04-14T07:01:28.144Z)
Latitude
-0.00005°
Longitude
-96.39921°
Altitude
767.116 km
Speed
7.486 km/s
True Right ascension
14h 05m 45s
True Declination
0° 00' 00"
Sunlit
Object was in full shadow at epoch
Visualization orbit readout
Latitude
Unknown
Longitude
Unknown
Altitude
Unknown
Speed
Unknown
Apparent Right ascension
Unknown
Apparent Declination
Unknown
Sunlit
N/A
Visualization observer readout
Local Sidereal Time
22:53:51
Azimuth
Unknown
Elevation
Unknown
Doppler factor
Unknown
Orbital elements
Apogee altitude
882.486 km
Perigee altitude
700.738 km
Semi-major axis
7,169.749 km
Eccentricity
0.01267
Inclination
66.9055°
RAAN
211.4391°
Arg. of periapsis
72.6848°
True anomaly
287.42532°
Mean anomaly
288.8071°
Eccentric anomaly
288.1169°
Mean motion
3.57509 °/min
Orbital period
100.7 mins
BSTAR
0.000082225
Loading maneuver chart data...
Computing Atmospheric mass density...

Documentation

Showing up to 5 results
|